Regional Weather Roundup
Issued by NWS

Home | Current Version | Previous Version | Graphics & Text | Print | Product List | Glossary On
Versions: 1 2 3 4 5 6 7 8 9 10 11 12 13 14 15 16 17 18 19 20 21 22 23 24 25 26 27 28 29 30 31 32 33 34 35 36 37 38 39 40 41 42 43 44 45 46 47 48 49 50
886
ASUS43 KDMX 040101
RWRIA

WEATHER ROUNDUP FOR IOWA
NATIONAL WEATHER SERVICE DES MOINES IA
700 PM CST SAT DEC 03 2016

NOTE: "FAIR" INDICATES FEW OR NO CLOUDS BELOW 12,000 FEET WITH NO
SIGNIFICANT WEATHER AND/OR OBSTRUCTIONS TO VISIBILITY.

* - THESE STATIONS ARE NOT NWS STATIONS...THUS NOT UNDER NWS
QUALITY CONTROL.  THEY ALSO DO NOT REPORT WEATHER SUCH
AS PRECIPITATION OR FOG.

IAZ001>003-012>014-020>022-031>034-043>046-040200-
   NORTHWEST IOWA

CITY           SKY/WX    TMP DP  RH WIND       PRES   REMARKS
CARROLL *      LGT SNOW  34  34 100 SE8       30.15F WCI  27
CHEROKEE *     LGT SNOW  33  33 100 S6        30.13F WCI  27
DENISON *      LGT SNOW  32  32 100 SE7       30.11F WCI  26
LE MARS *      CLOUDY    34  32  93 S9        30.12F FOG     WCI  26
ORANGE CITY *  LGT SNOW  34  34 100 CALM      30.10F
SHELDON *      MIX PCPN  32  32 100 S14       30.09F WCI  22
SIOUX CITY     CLOUDY    34  33  96 SE8       30.12F FOG     WCI  27
SPENCER        LGT SNOW  33  32  96 S12       30.12F FOG     WCI  24
STORM LAKE *   CLOUDY    32  32 100 SE12      30.12F FOG     WCI  23
$$

IAZ055>058-069>071-079>083-090>094-040200-
   SOUTHWEST IOWA

CITY           SKY/WX    TMP DP  RH WIND       PRES   REMARKS
ATLANTIC *     LGT SNOW  34  34 100 E9        30.14F WCI  26
AUDUBON *      LGT SNOW  34  30  86 SE7       30.15F WCI  28
CLARINDA *       N/A     39  34  81 SE8G17    30.15F WCI  34
COUNCIL BLFS * LGT SNOW  32  32 100 SE9       30.13S VSB 1   WCI  24
CRESTON *      MOCLDY    37  34  87 E10       30.15F WCI  30
HARLAN  *      LGT SNOW  34  32  93 SE7       30.17S WCI  28
LAMONI         CLOUDY    41  32  70 E6        30.16F
RED OAK *      CLOUDY    36  36 100 E7        30.15S WCI  30
SHENANDOAH *   CLOUDY    37  36  93 SE8       30.15S WCI  31
$$

IAZ047>049-059>061-072>074-084-040200-
   CENTRAL IOWA

CITY           SKY/WX    TMP DP  RH WIND       PRES   REMARKS
AMES           CLOUDY    36  35  96 SE8       30.19F WCI  30
ANKENY *       CLOUDY    37  37 100 E6        30.21F WCI  33
BOONE *        CLOUDY    36  34  93 SE9       30.17F WCI  29
CHARITON *       N/A     37  32  81 E9        30.19S WCI  31
DES MOINES     LGT RAIN  39  33  79 E6        30.20S WCI  35
GRINNELL*      CLOUDY    36  31  83 E5        30.23S WCI  32
KNOXVILLE *    CLOUDY    39  30  70 E5        30.20S
MARSHALLTOWN   CLOUDY    35  32  88 SE7       30.21F WCI  29
NEWTON *       CLOUDY    37  32  81 E8        30.21S WCI  31
PELLA *        CLOUDY    38  31  78 E6        30.23S WCI  33
PERRY *        DRIZZLE   36  35  99 SE7       30.18S WCI  30
$$

IAZ004>006-015-016-023>025-035-036-040200-
   NORTH CENTRAL IOWA

CITY           SKY/WX    TMP DP  RH WIND       PRES   REMARKS
ALGONA *       LGT SNOW  34  34 100 S9        30.15F WCI  26
CLARION *      CLOUDY    34  34 100 SE7       30.17F FOG     WCI  28
ESTHERVILLE    LGT SNOW  32  32 100 S12       30.13F FOG     WCI  23
FORT DODGE *   CLOUDY    34  30  86 SE5       30.17F WCI  30
MASON CITY     LGT SNOW  33  32  96 SE5       30.19F FOG     WCI  29
WEBSTER CITY * MIX PCPN  34  34 100 SE8       30.16F WCI  27
IOWA FALLS *   CLOUDY    34  33  94 SE5       30.21S WCI  30
$$

IAZ007>011-017>019-026>030-037>042-050>054-066-040200-
   NORTHEAST IOWA

CITY           SKY/WX    TMP DP  RH WIND       PRES   REMARKS
CEDAR RAPIDS   CLOUDY    35  30  82 SE5       30.24F WCI  31
CHARLES CITY * CLOUDY    36  30  80 SE5       30.20F WCI  32
CLINTON *      CLOUDY    34  28  79 S5        30.28S WCI  30
DECORAH *      CLOUDY    32  25  74 E5        30.21F WCI  27
DUBUQUE        CLOUDY    32  27  81 SE3       30.25S
MONTICELLO *   CLOUDY    36  30  80 S6        30.25S WCI  31
OELWEIN *      CLOUDY    36  32  87 SE6       30.22F WCI  31
WATERLOO       CLOUDY    36  31  82 S8        30.22F WCI  30
$$

IAZ064-065-067-068-078-040200-
   EAST CENTRAL IOWA

CITY           SKY/WX    TMP DP  RH WIND       PRES   REMARKS
DAVENPORT      PTCLDY    32  26  78 SE5       30.27S WCI  27
IOWA CITY      CLOUDY    37  28  70 SE6       30.28S WCI  32
MUSCATINE *    CLOUDY    36  28  75 SE5       30.28S WCI  32
QUAD CITIES    PTCLDY    34  26  72 S6        30.28R WCI  29
$$

IAZ062-063-075>077-085>089-095>099-040200-
   SOUTHEAST IOWA

CITY           SKY/WX    TMP DP  RH WIND       PRES   REMARKS
BURLINGTON     CLOUDY    35  29  78 E7        30.26S WCI  29
FAIRFIELD *    CLOUDY    37  28  70 SE9       30.23F WCI  31
FORT MADISON * CLOUDY    37  30  75 E6        30.26S WCI  33
KEOKUK *       CLOUDY    39  32  75 SE9       30.25S WCI  33
OSKALOOSA *    CLOUDY    37  31  80 SE8       30.24R WCI  30
CENTERVILLE *    N/A     37  32  81 CALM      30.21F
OTTUMWA        CLOUDY    38  29  70 SE10      30.23R WCI  31
WASHINGTON *   CLOUDY    36  30  80 SE9       30.26S WCI  29
$$

ABBREVIATIONS USED IN REMARKS
   TC - TEMPERATURES IN CELSIUS
  WCI - WIND CHILL INDEX
   HX - HEAT INDEX
  VSB - VISIBILITY
$$





USA.gov is the U.S. government's official web portal to all federal, state and local government web resources and services.